Wetterdaten: aktuell Freitag, 28.01.2022 01:10
Datum Zeit Temp. 2m Temp. -50cm Temp. -10cm Temp. -5cm Temp. +5cm Feuchte 2m Feuch. -10cm Luftdruck Regen Wind Richtung Richtung Sonnenschein Solar Windben
28.01.2022 01:10 5,2 C 0,9 C 0,0 C -0,3 C 3,6 C 54 % 34 cb 1027,2 hPa 0,0 l/m 9,5 km/h W-NW 292 0 min 0 W/m 20,8 km/h
28.01.2022 01:05 5,2 C 0,9 C 0,0 C -0,3 C 3,5 C 54 % 34 cb 1027,1 hPa 0,0 l/m 10,0 km/h W-NW 292 0 min 0 W/m 19,2 km/h
28.01.2022 01:00 5,2 C 0,9 C 0,0 C -0,3 C 3,7 C 53 % 34 cb 1027,2 hPa 0,0 l/m 16,2 km/h W-NW 292 0 min 0 W/m 28,8 km/h
28.01.2022 00:55 5,1 C 0,9 C 0,0 C -0,3 C 3,8 C 53 % 34 cb 1027,3 hPa 0,0 l/m 21,0 km/h W 270 0 min 0 W/m 30,4 km/h
28.01.2022 00:50 4,9 C 0,9 C 0,0 C -0,3 C 3,4 C 53 % 34 cb 1027,2 hPa 0,0 l/m 12,0 km/h W-NW 292 0 min 0 W/m 20,8 km/h
28.01.2022 00:45 5,1 C 0,9 C 0,0 C -0,3 C 3,6 C 51 % 34 cb 1027,1 hPa 0,0 l/m 14,4 km/h NW 315 0 min 0 W/m 25,6 km/h
28.01.2022 00:40 5,4 C 0,9 C 0,0 C -0,3 C 3,7 C 50 % 34 cb 1027,0 hPa 0,0 l/m 14,2 km/h W-NW 292 0 min 0 W/m 25,6 km/h
28.01.2022 00:35 5,4 C 0,9 C 0,0 C -0,3 C 3,4 C 49 % 34 cb 1026,9 hPa 0,0 l/m 13,4 km/h W-NW 292 0 min 0 W/m 27,2 km/h
28.01.2022 00:30 5,3 C 0,9 C 0,0 C -0,3 C 3,6 C 49 % 34 cb 1027,1 hPa 0,0 l/m 12,3 km/h W 270 0 min 0 W/m 22,4 km/h
28.01.2022 00:25 5,3 C 0,9 C 0,0 C -0,3 C 3,6 C 48 % 34 cb 1027,1 hPa 0,0 l/m 18,4 km/h W-NW 292 0 min 0 W/m 28,8 km/h
28.01.2022 00:20 5,2 C 0,9 C 0,0 C -0,3 C 3,3 C 47 % 34 cb 1027,0 hPa 0,0 l/m 16,0 km/h W 270 0 min 0 W/m 27,2 km/h
28.01.2022 00:15 5,2 C 0,9 C 0,0 C -0,3 C 3,4 C 47 % 34 cb 1026,9 hPa 0,0 l/m 17,5 km/h W 270 0 min 0 W/m 35,2 km/h
28.01.2022 00:10 5,2 C 0,9 C 0,0 C -0,3 C 3,2 C 46 % 34 cb 1026,9 hPa 0,0 l/m 15,7 km/h W 270 0 min 0 W/m 27,2 km/h
28.01.2022 00:05 4,8 C 0,9 C 0,0 C -0,3 C 2,6 C 47 % 34 cb 1026,8 hPa 0,0 l/m 11,4 km/h W-NW 292 0 min 0 W/m 17,6 km/h
28.01.2022 00:00 4,5 C 0,9 C 0,0 C -0,3 C 3,0 C 48 % 34 cb 1026,8 hPa 0,0 l/m 16,4 km/h W 270 0 min 0 W/m 27,2 km/h
27.01.2022 23:55 3,7 C 0,9 C 0,0 C -0,3 C 2,6 C 50 % 34 cb 1027,1 hPa 0,0 l/m 15,2 km/h W 270 0 min 0 W/m 25,6 km/h
27.01.2022 23:50 2,3 C 0,9 C 0,0 C -0,3 C 1,2 C 55 % 34 cb 1027,6 hPa 0,0 l/m 12,4 km/h W 270 0 min 0 W/m 17,6 km/h
27.01.2022 23:45 0,3 C 0,9 C 0,0 C -0,3 C -0,8 C 66 % 34 cb 1028,3 hPa 0,0 l/m 5,2 km/h SW 225 0 min 0 W/m 12,8 km/h
27.01.2022 23:40 -0,2 C 0,9 C 0,0 C -0,3 C -1,9 C 69 % 34 cb 1028,5 hPa 0,0 l/m 3,3 km/h SW 225 0 min 0 W/m 4,8 km/h
27.01.2022 23:35 -0,7 C 0,9 C 0,0 C -0,3 C -1,8 C 69 % 34 cb 1028,9 hPa 0,0 l/m 4,1 km/h S-SW 202 0 min 0 W/m 8,0 km/h
27.01.2022 23:30 -0,6 C 0,9 C 0,0 C -0,3 C -2,6 C 68 % 34 cb 1028,8 hPa 0,0 l/m 0,5 km/h NO 45 0 min 0 W/m 3,2 km/h
27.01.2022 23:25 -0,5 C 0,9 C 0,0 C -0,3 C -2,4 C 68 % 34 cb 1028,7 hPa 0,0 l/m 0,3 km/h NO 45 0 min 0 W/m 3,2 km/h
27.01.2022 23:20 -0,4 C 0,9 C 0,0 C -0,3 C -1,9 C 68 % 34 cb 1028,7 hPa 0,0 l/m 0,9 km/h NO 45 0 min 0 W/m 4,8 km/h
27.01.2022 23:15 -0,4 C 0,9 C 0,0 C -0,3 C -2,1 C 68 % 34 cb 1028,7 hPa 0,0 l/m 2,3 km/h W 270 0 min 0 W/m 4,8 km/h
27.01.2022 23:10 -0,6 C 0,9 C 0,0 C -0,3 C -2,8 C 68 % 34 cb 1028,4 hPa 0,0 l/m 2,6 km/h W 270 0 min 0 W/m 4,8 km/h
27.01.2022 23:05 -0,4 C 0,9 C 0,0 C -0,3 C -2,4 C 67 % 34 cb 1028,4 hPa 0,0 l/m 4,4 km/h N 360 0 min 0 W/m 6,4 km/h
27.01.2022 23:00 -0,2 C 0,9 C 0,0 C -0,3 C -2,4 C 67 % 34 cb 1028,2 hPa 0,0 l/m 3,1 km/h SW 225 0 min 0 W/m 6,4 km/h
27.01.2022 22:55 -0,2 C 0,9 C 0,0 C -0,3 C -2,6 C 67 % 34 cb 1028,4 hPa 0,0 l/m 3,2 km/h S-SO 158 0 min 0 W/m 6,4 km/h
27.01.2022 22:50 -0,2 C 0,9 C 0,0 C -0,3 C -2,4 C 67 % 34 cb 1028,7 hPa 0,0 l/m 3,1 km/h SO 135 0 min 0 W/m 6,4 km/h
27.01.2022 22:45 -0,3 C 0,9 C 0,0 C -0,3 C -2,3 C 68 % 34 cb 1029,0 hPa 0,0 l/m 2,3 km/h SO 135 0 min 0 W/m 3,2 km/h
27.01.2022 22:40 -0,1 C 0,9 C 0,0 C -0,3 C -2,2 C 67 % 34 cb 1028,9 hPa 0,0 l/m 2,0 km/h SO 135 0 min 0 W/m 4,8 km/h
27.01.2022 22:35 0,1 C 0,9 C 0,0 C -0,3 C -2,1 C 66 % 34 cb 1029,2 hPa 0,0 l/m 1,2 km/h O-SO 112 0 min 0 W/m 4,8 km/h
27.01.2022 22:30 0,3 C 0,9 C 0,0 C -0,3 C -1,9 C 65 % 34 cb 1029,1 hPa 0,0 l/m 1,2 km/h O-SO 112 0 min 0 W/m 3,2 km/h
27.01.2022 22:25 0,4 C 0,9 C 0,0 C -0,3 C -1,4 C 65 % 34 cb 1029,1 hPa 0,0 l/m 0,8 km/h SO 135 0 min 0 W/m 3,2 km/h
27.01.2022 22:20 0,1 C 0,9 C 0,0 C -0,3 C -1,3 C 67 % 34 cb 1029,0 hPa 0,0 l/m 2,5 km/h SO 135 0 min 0 W/m 6,4 km/h
27.01.2022 22:15 0,2 C 0,9 C 0,0 C -0,3 C -1,5 C 67 % 34 cb 1029,1 hPa 0,0 l/m 3,1 km/h SO 135 0 min 0 W/m 8,0 km/h
27.01.2022 22:10 0,2 C 0,9 C 0,0 C -0,3 C -1,4 C 67 % 34 cb 1029,3 hPa 0,0 l/m 3,0 km/h S-SO 158 0 min 0 W/m 6,4 km/h
27.01.2022 22:05 0,2 C 0,9 C 0,0 C -0,3 C -1,4 C 66 % 34 cb 1029,3 hPa 0,0 l/m 2,3 km/h O-NO 68 0 min 0 W/m 3,2 km/h
27.01.2022 22:00 0,3 C 0,9 C 0,0 C -0,3 C -1,1 C 66 % 34 cb 1029,2 hPa 0,0 l/m 2,8 km/h W 270 0 min 0 W/m 4,8 km/h
27.01.2022 21:55 0,1 C 0,9 C 0,0 C -0,3 C -1,0 C 67 % 34 cb 1029,3 hPa 0,0 l/m 4,7 km/h W 270 0 min 0 W/m 6,4 km/h
27.01.2022 21:50 -0,1 C 0,9 C 0,0 C -0,3 C -1,7 C 67 % 34 cb 1029,3 hPa 0,0 l/m 4,4 km/h N 360 0 min 0 W/m 6,4 km/h
27.01.2022 21:45 0,0 C 0,9 C 0,0 C -0,3 C -2,4 C 66 % 34 cb 1029,1 hPa 0,0 l/m 2,1 km/h N 360 0 min 0 W/m 6,4 km/h
27.01.2022 21:40 0,1 C 0,9 C 0,0 C -0,3 C -2,4 C 66 % 34 cb 1028,9 hPa 0,0 l/m 0,2 km/h W-SW 248 0 min 0 W/m 1,6 km/h
27.01.2022 21:35 0,3 C 0,9 C 0,0 C -0,3 C -1,9 C 66 % 34 cb 1028,8 hPa 0,0 l/m 1,7 km/h W-SW 248 0 min 0 W/m 4,8 km/h
27.01.2022 21:30 0,4 C 0,9 C 0,0 C -0,3 C -1,7 C 65 % 34 cb 1028,9 hPa 0,0 l/m 0,5 km/h W-NW 292 0 min 0 W/m 4,8 km/h
27.01.2022 21:25 0,2 C 0,9 C 0,0 C -0,3 C -1,3 C 67 % 34 cb 1029,0 hPa 0,0 l/m 1,9 km/h NW 315 0 min 0 W/m 4,8 km/h
27.01.2022 21:20 -0,1 C 0,9 C 0,0 C -0,3 C -1,7 C 68 % 34 cb 1029,2 hPa 0,0 l/m 1,5 km/h W-SW 248 0 min 0 W/m 3,2 km/h
27.01.2022 21:15 -0,2 C 0,9 C 0,0 C -0,3 C -2,2 C 68 % 34 cb 1029,3 hPa 0,0 l/m 2,1 km/h W 270 0 min 0 W/m 4,8 km/h
27.01.2022 21:10 -0,3 C 0,9 C 0,0 C -0,3 C -2,2 C 69 % 34 cb 1029,4 hPa 0,0 l/m 2,9 km/h W-SW 248 0 min 0 W/m 8,0 km/h
27.01.2022 21:05 -0,2 C 0,9 C 0,0 C -0,3 C -2,3 C 68 % 34 cb 1029,4 hPa 0,0 l/m 1,0 km/h W-SW 248 0 min 0 W/m 6,4 km/h
27.01.2022 21:00 0,1 C 0,9 C 0,0 C -0,3 C -2,1 C 67 % 34 cb 1029,2 hPa 0,0 l/m 0,4 km/h N-NW 338 0 min 0 W/m 1,6 km/h
27.01.2022 20:55 0,2 C 0,9 C 0,0 C -0,3 C -2,1 C 67 % 34 cb 1029,2 hPa 0,0 l/m 0,5 km/h N 360 0 min 0 W/m 3,2 km/h
27.01.2022 20:50 0,4 C 0,9 C 0,0 C -0,3 C -1,7 C 66 % 34 cb 1029,4 hPa 0,0 l/m 2,1 km/h SW 225 0 min 0 W/m 4,8 km/h
27.01.2022 20:45 0,6 C 0,9 C 0,0 C -0,3 C -1,2 C 66 % 34 cb 1029,3 hPa 0,0 l/m 1,3 km/h SW 225 0 min 0 W/m 3,2 km/h
27.01.2022 20:40 0,6 C 0,9 C 0,0 C -0,3 C -1,3 C 66 % 34 cb 1029,4 hPa 0,0 l/m 0,3 km/h SW 225 0 min 0 W/m 1,6 km/h
27.01.2022 20:35 0,3 C 0,9 C 0,0 C -0,3 C -0,8 C 66 % 34 cb 1029,6 hPa 0,0 l/m 3,2 km/h SW 225 0 min 0 W/m 11,2 km/h
27.01.2022 20:30 0,0 C 0,9 C 0,0 C -0,3 C -1,4 C 66 % 34 cb 1029,7 hPa 0,0 l/m 6,3 km/h W-SW 248 0 min 0 W/m 12,8 km/h
27.01.2022 20:25 0,5 C 0,9 C 0,0 C -0,3 C -1,2 C 64 % 34 cb 1029,5 hPa 0,0 l/m 5,3 km/h N 360 0 min 0 W/m 11,2 km/h
27.01.2022 20:20 0,3 C 0,9 C 0,0 C -0,3 C -1,9 C 64 % 34 cb 1029,1 hPa 0,0 l/m 5,6 km/h O 90 0 min 0 W/m 11,2 km/h
27.01.2022 20:15 0,0 C 0,9 C 0,0 C -0,3 C -2,6 C 64 % 34 cb 1029,5 hPa 0,0 l/m 1,6 km/h O-NO 68 0 min 0 W/m 4,8 km/h
27.01.2022 20:10 -0,2 C 0,9 C 0,0 C -0,3 C -3,3 C 61 % 34 cb 1029,7 hPa 0,0 l/m 2,9 km/h SO 135 0 min 0 W/m 9,6 km/h
27.01.2022 20:05 -0,3 C 0,9 C 0,0 C -0,3 C -3,8 C 62 % 34 cb 1029,9 hPa 0,0 l/m 3,9 km/h S-SW 202 0 min 0 W/m 11,2 km/h
27.01.2022 20:00 -0,1 C 0,9 C 0,0 C -0,3 C -3,6 C 62 % 34 cb 1029,7 hPa 0,0 l/m 4,6 km/h O-SO 112 0 min 0 W/m 11,2 km/h
27.01.2022 19:55 -0,8 C 0,9 C 0,0 C -0,3 C -3,6 C 64 % 34 cb 1030,0 hPa 0,0 l/m 4,2 km/h S 180 0 min 0 W/m 6,4 km/h
27.01.2022 19:50 -0,9 C 0,9 C 0,0 C -0,3 C -4,1 C 64 % 34 cb 1030,0 hPa 0,0 l/m 3,0 km/h S 180 0 min 0 W/m 8,0 km/h
27.01.2022 19:45 -1,0 C 0,9 C 0,0 C -0,3 C -4,1 C 65 % 34 cb 1030,1 hPa 0,0 l/m 4,3 km/h S-SW 202 0 min 0 W/m 6,4 km/h
27.01.2022 19:40 -0,9 C 0,9 C 0,0 C -0,3 C -3,8 C 67 % 34 cb 1029,9 hPa 0,0 l/m 0,9 km/h W-SW 248 0 min 0 W/m 3,2 km/h
27.01.2022 19:35 -0,6 C 0,9 C 0,0 C -0,3 C -3,7 C 65 % 34 cb 1029,7 hPa 0,0 l/m 1,0 km/h W-SW 248 0 min 0 W/m 4,8 km/h
27.01.2022 19:30 -0,7 C 0,9 C 0,0 C -0,3 C -4,2 C 65 % 34 cb 1029,7 hPa 0,0 l/m 0,7 km/h W 270 0 min 0 W/m 4,8 km/h
27.01.2022 19:25 -0,3 C 0,9 C 0,0 C -0,3 C -4,4 C 65 % 34 cb 1029,6 hPa 0,0 l/m 0,1 km/h W 270 0 min 0 W/m 1,6 km/h
27.01.2022 19:20 -0,6 C 0,9 C 0,0 C -0,3 C -4,1 C 65 % 34 cb 1029,6 hPa 0,0 l/m 0,7 km/h W 270 0 min 0 W/m 3,2 km/h
27.01.2022 19:15 -0,4 C 0,9 C 0,0 C -0,3 C -4,4 C 64 % 34 cb 1029,6 hPa 0,0 l/m 0,1 km/h W 270 0 min 0 W/m 1,6 km/h
27.01.2022 19:10 -0,5 C 0,9 C 0,0 C -0,3 C -3,7 C 65 % 34 cb 1029,6 hPa 0,0 l/m 1,2 km/h W 270 0 min 0 W/m 3,2 km/h
27.01.2022 19:05 -0,2 C 0,9 C 0,0 C -0,3 C -3,4 C 63 % 34 cb 1029,4 hPa 0,0 l/m 1,2 km/h W-NW 292 0 min 0 W/m 3,2 km/h
27.01.2022 19:00 -0,3 C 0,9 C 0,0 C -0,3 C -2,9 C 63 % 34 cb 1029,4 hPa 0,0 l/m 1,3 km/h W 270 0 min 0 W/m 4,8 km/h
27.01.2022 18:55 -0,1 C 0,9 C 0,0 C -0,3 C -3,6 C 62 % 33 cb 1029,2 hPa 0,0 l/m 0,3 km/h W-SW 248 0 min 0 W/m 1,6 km/h
27.01.2022 18:50 -0,1 C 0,9 C 0,0 C -0,3 C -3,6 C 63 % 33 cb 1029,3 hPa 0,0 l/m 0,0 km/h W-SW 248 0 min 0 W/m 1,6 km/h
27.01.2022 18:45 0,1 C 0,9 C 0,0 C -0,3 C -3,4 C 62 % 33 cb 1029,2 hPa 0,0 l/m 2,3 km/h W-SW 248 0 min 0 W/m 6,4 km/h
27.01.2022 18:40 0,3 C 0,9 C 0,0 C -0,3 C -3,6 C 62 % 33 cb 1028,9 hPa 0,0 l/m 1,0 km/h S 180 0 min 0 W/m 3,2 km/h
27.01.2022 18:35 0,2 C 0,9 C 0,0 C -0,3 C -2,9 C 61 % 33 cb 1029,0 hPa 0,0 l/m 1,5 km/h O-SO 112 0 min 0 W/m 3,2 km/h
27.01.2022 18:30 0,6 C 0,9 C 0,0 C -0,3 C -3,2 C 60 % 33 cb 1028,8 hPa 0,0 l/m 0,4 km/h O-SO 112 0 min 0 W/m 1,6 km/h
27.01.2022 18:25 0,8 C 0,9 C 0,0 C -0,3 C -3,3 C 59 % 33 cb 1028,8 hPa 0,0 l/m 0,7 km/h O-SO 112 0 min 0 W/m 3,2 km/h
27.01.2022 18:20 0,9 C 0,9 C 0,0 C -0,3 C -2,9 C 58 % 33 cb 1028,8 hPa 0,0 l/m 0,4 km/h O-SO 112 0 min 0 W/m 1,6 km/h
27.01.2022 18:15 1,2 C 0,9 C 0,0 C -0,3 C -2,4 C 57 % 33 cb 1028,7 hPa 0,0 l/m 0,3 km/h O-SO 112 0 min 0 W/m 1,6 km/h
27.01.2022 18:10 1,2 C 0,9 C 0,0 C -0,3 C -3,2 C 57 % 33 cb 1028,5 hPa 0,0 l/m 0,4 km/h O-SO 112 0 min 0 W/m 1,6 km/h
27.01.2022 18:05 1,6 C 0,9 C 0,0 C -0,3 C -2,2 C 56 % 33 cb 1028,3 hPa 0,0 l/m 2,0 km/h S-SW 202 0 min 0 W/m 4,8 km/h
27.01.2022 18:00 1,6 C 0,9 C 0,0 C -0,3 C -1,9 C 55 % 33 cb 1028,4 hPa 0,0 l/m 1,1 km/h S-SW 202 0 min 0 W/m 3,2 km/h
27.01.2022 17:55 1,9 C 0,9 C 0,0 C -0,3 C -2,7 C 54 % 33 cb 1028,3 hPa 0,0 l/m 0,8 km/h S-SW 202 0 min 0 W/m 3,2 km/h
27.01.2022 17:50 2,1 C 0,9 C 0,0 C -0,3 C -2,2 C 54 % 33 cb 1028,2 hPa 0,0 l/m 2,7 km/h S 180 0 min 0 W/m 6,4 km/h
27.01.2022 17:45 2,8 C 0,9 C 0,0 C -0,3 C -1,7 C 52 % 33 cb 1027,8 hPa 0,0 l/m 2,4 km/h O 90 0 min 0 W/m 4,8 km/h
27.01.2022 17:40 3,0 C 0,9 C 0,0 C -0,3 C -1,9 C 51 % 33 cb 1027,8 hPa 0,0 l/m 3,4 km/h O-SO 112 0 min 0 W/m 6,4 km/h
27.01.2022 17:35 3,0 C 0,9 C 0,0 C -0,3 C -2,0 C 51 % 33 cb 1027,7 hPa 0,0 l/m 2,2 km/h S-SO 158 0 min 0 W/m 6,4 km/h
27.01.2022 17:30 2,8 C 0,9 C 0,0 C -0,3 C -1,9 C 51 % 33 cb 1027,8 hPa 0,0 l/m 4,2 km/h S 180 0 min 0 W/m 8,0 km/h
27.01.2022 17:25 3,2 C 0,9 C 0,0 C -0,3 C -0,8 C 50 % 33 cb 1027,7 hPa 0,0 l/m 2,9 km/h S-SO 158 0 min 0 W/m 4,8 km/h
27.01.2022 17:20 3,1 C 0,9 C 0,0 C -0,3 C -0,3 C 50 % 33 cb 1027,6 hPa 0,0 l/m 4,5 km/h S 180 0 min 0 W/m 8,0 km/h
27.01.2022 17:15 3,2 C 0,9 C 0,0 C -0,3 C -0,7 C 51 % 33 cb 1027,5 hPa 0,0 l/m 3,0 km/h S-SO 158 0 min 0 W/m 8,0 km/h
27.01.2022 17:10 3,4 C 0,9 C 0,0 C -0,3 C -0,1 C 51 % 33 cb 1027,4 hPa 0,0 l/m 4,0 km/h S-SO 158 0 min 3 W/m 6,4 km/h
27.01.2022 17:05 3,4 C 0,9 C 0,0 C -0,3 C -0,3 C 51 % 33 cb 1027,5 hPa 0,0 l/m 5,7 km/h S-SO 158 0 min 7 W/m 9,6 km/h
27.01.2022 17:00 3,2 C 0,9 C 0,0 C -0,3 C 0,2 C 53 % 33 cb 1027,4 hPa 0,0 l/m 5,1 km/h S 180 0 min 11 W/m 8,0 km/h
27.01.2022 16:55 3,1 C 0,9 C 0,0 C -0,3 C -0,1 C 54 % 33 cb 1027,4 hPa 0,0 l/m 4,5 km/h S-SW 202 0 min 13 W/m 8,0 km/h
27.01.2022 16:50 3,2 C 0,9 C 0,0 C -0,3 C -0,3 C 54 % 33 cb 1027,5 hPa 0,0 l/m 3,1 km/h S-SW 202 0 min 17 W/m 6,4 km/h
27.01.2022 16:45 3,7 C 0,9 C 0,0 C -0,3 C 0,3 C 53 % 33 cb 1027,2 hPa 0,0 l/m 3,2 km/h O 90 0 min 21 W/m 6,4 km/h
27.01.2022 16:40 3,9 C 0,9 C 0,0 C -0,3 C 0,2 C 52 % 33 cb 1027,1 hPa 0,0 l/m 3,8 km/h S-SO 158 0 min 26 W/m 6,4 km/h
27.01.2022 16:35 4,2 C 0,9 C 0,0 C -0,3 C -0,1 C 52 % 33 cb 1026,9 hPa 0,0 l/m 1,7 km/h S-SO 158 0 min 31 W/m 6,4 km/h
27.01.2022 16:30 4,4 C 0,9 C 0,0 C -0,3 C 0,3 C 50 % 33 cb 1026,7 hPa 0,0 l/m 2,3 km/h S-SO 158 0 min 36 W/m 6,4 km/h
27.01.2022 16:25 3,9 C 0,9 C 0,0 C -0,3 C 0,4 C 52 % 33 cb 1026,9 hPa 0,0 l/m 2,5 km/h S 180 0 min 40 W/m 4,8 km/h
27.01.2022 16:20 3,8 C 0,9 C 0,0 C -0,3 C 0,4 C 50 % 33 cb 1027,0 hPa 0,0 l/m 1,4 km/h S 180 0 min 43 W/m 3,2 km/h
27.01.2022 16:15 4,0 C 0,9 C 0,0 C -0,3 C 0,8 C 49 % 33 cb 1026,9 hPa 0,0 l/m 2,3 km/h S 180 0 min 46 W/m 6,4 km/h
27.01.2022 16:10 4,1 C 0,9 C 0,0 C -0,3 C 1,2 C 49 % 33 cb 1026,8 hPa 0,0 l/m 3,2 km/h SW 225 0 min 47 W/m 4,8 km/h
27.01.2022 16:05 4,6 C 0,9 C 0,0 C -0,3 C 0,7 C 47 % 33 cb 1026,7 hPa 0,0 l/m 0,4 km/h SW 225 0 min 49 W/m 1,6 km/h
27.01.2022 16:00 4,8 C 0,9 C 0,0 C -0,3 C 1,4 C 42 % 33 cb 1026,5 hPa 0,0 l/m 1,3 km/h S-SW 202 0 min 52 W/m 3,2 km/h
27.01.2022 15:55 4,9 C 0,9 C 0,0 C -0,3 C 1,9 C 46 % 33 cb 1026,5 hPa 0,0 l/m 1,1 km/h S-SW 202 0 min 55 W/m 3,2 km/h
27.01.2022 15:50 5,4 C 0,9 C 0,0 C -0,3 C 2,4 C 43 % 33 cb 1026,3 hPa 0,0 l/m 1,5 km/h S-SW 202 0 min 58 W/m 3,2 km/h
27.01.2022 15:45 5,5 C 0,9 C 0,0 C -0,3 C 2,1 C 42 % 33 cb 1026,3 hPa 0,0 l/m 2,3 km/h S 180 0 min 61 W/m 4,8 km/h
27.01.2022 15:40 5,4 C 0,9 C 0,0 C -0,3 C 2,7 C 45 % 33 cb 1026,3 hPa 0,0 l/m 2,9 km/h S-SW 202 0 min 64 W/m 6,4 km/h
27.01.2022 15:35 5,8 C 0,9 C 0,0 C -0,3 C 3,8 C 45 % 33 cb 1026,2 hPa 0,0 l/m 1,8 km/h S-SW 202 5 min 140 W/m 4,8 km/h
27.01.2022 15:30 6,4 C 0,9 C 0,0 C -0,3 C 9,6 C 42 % 33 cb 1025,9 hPa 0,0 l/m 1,0 km/h S-SW 202 5 min 192 W/m 3,2 km/h
27.01.2022 15:25 6,5 C 0,9 C 0,0 C -0,3 C 7,8 C 43 % 33 cb 1025,9 hPa 0,0 l/m 3,6 km/h SW 225 5 min 200 W/m 4,8 km/h
27.01.2022 15:20 6,1 C 0,9 C 0,0 C -0,3 C 7,2 C 44 % 33 cb 1026,1 hPa 0,0 l/m 1,8 km/h W 270 5 min 204 W/m 4,8 km/h
27.01.2022 15:15 6,1 C 0,9 C 0,0 C -0,3 C 7,2 C 44 % 33 cb 1026,1 hPa 0,0 l/m 1,1 km/h W 270 5 min 217 W/m 3,2 km/h
27.01.2022 15:10 6,1 C 0,9 C 0,0 C -0,3 C 7,6 C 42 % 33 cb 1026,1 hPa 0,0 l/m 0,6 km/h N 360 5 min 234 W/m 3,2 km/h
27.01.2022 15:05 5,9 C 0,9 C 0,0 C -0,3 C 8,2 C 41 % 33 cb 1026,2 hPa 0,0 l/m 0,5 km/h N 360 5 min 247 W/m 3,2 km/h
27.01.2022 15:00 5,7 C 0,9 C 0,0 C -0,3 C 9,6 C 41 % 33 cb 1026,3 hPa 0,0 l/m 3,1 km/h N 360 5 min 256 W/m 6,4 km/h
27.01.2022 14:55 5,5 C 0,9 C 0,0 C -0,3 C 7,5 C 42 % 33 cb 1026,4 hPa 0,0 l/m 0,8 km/h W-NW 292 5 min 262 W/m 3,2 km/h
27.01.2022 14:50 6,1 C 0,9 C 0,0 C -0,3 C 7,2 C 40 % 33 cb 1026,3 hPa 0,0 l/m 0,9 km/h SW 225 5 min 263 W/m 1,6 km/h
27.01.2022 14:45 6,2 C 0,9 C 0,0 C -0,3 C 5,9 C 38 % 33 cb 1026,2 hPa 0,0 l/m 2,0 km/h SW 225 5 min 265 W/m 4,8 km/h
27.01.2022 14:40 5,8 C 0,9 C 0,0 C -0,3 C 5,9 C 39 % 33 cb 1026,5 hPa 0,0 l/m 0,7 km/h SW 225 5 min 261 W/m 3,2 km/h
27.01.2022 14:35 6,1 C 0,9 C 0,0 C -0,3 C 5,7 C 42 % 33 cb 1026,3 hPa 0,0 l/m 3,0 km/h SW 225 5 min 257 W/m 6,4 km/h
27.01.2022 14:30 6,3 C 0,9 C 0,0 C -0,3 C 5,3 C 40 % 33 cb 1026,3 hPa 0,0 l/m 3,4 km/h W 270 5 min 252 W/m 6,4 km/h
27.01.2022 14:25 6,2 C 0,9 C 0,0 C -0,3 C 7,5 C 38 % 33 cb 1026,4 hPa 0,0 l/m 1,2 km/h SW 225 5 min 257 W/m 3,2 km/h
27.01.2022 14:20 6,3 C 0,9 C 0,0 C -0,3 C 7,9 C 38 % 33 cb 1026,5 hPa 0,0 l/m 2,5 km/h SW 225 5 min 267 W/m 4,8 km/h
27.01.2022 14:15 6,1 C 0,9 C 0,0 C -0,3 C 7,4 C 42 % 33 cb 1026,6 hPa 0,0 l/m 3,0 km/h SW 225 5 min 282 W/m 4,8 km/h
27.01.2022 14:10 5,9 C 0,9 C 0,0 C -0,3 C 8,1 C 46 % 33 cb 1026,8 hPa 0,0 l/m 1,6 km/h SW 225 5 min 269 W/m 3,2 km/h
27.01.2022 14:05 5,9 C 0,9 C 0,0 C -0,3 C 8,6 C 47 % 33 cb 1026,8 hPa 0,0 l/m 0,3 km/h SW 225 5 min 274 W/m 1,6 km/h
27.01.2022 14:00 5,9 C 0,9 C 0,0 C -0,3 C 6,7 C 44 % 33 cb 1027,0 hPa 0,0 l/m 1,8 km/h SW 225 5 min 282 W/m 3,2 km/h
27.01.2022 13:55 5,6 C 0,9 C 0,0 C -0,3 C 6,3 C 46 % 33 cb 1027,3 hPa 0,0 l/m 1,8 km/h S-SW 202 5 min 279 W/m 3,2 km/h
27.01.2022 13:50 5,6 C 0,9 C 0,0 C -0,3 C 6,1 C 47 % 33 cb 1027,3 hPa 0,0 l/m 3,6 km/h SW 225 5 min 292 W/m 6,4 km/h
27.01.2022 13:45 5,3 C 0,9 C 0,0 C -0,3 C 6,5 C 46 % 33 cb 1027,6 hPa 0,0 l/m 1,0 km/h SW 225 5 min 299 W/m 3,2 km/h
27.01.2022 13:40 5,4 C 0,9 C 0,0 C -0,3 C 6,6 C 46 % 33 cb 1027,5 hPa 0,0 l/m 2,5 km/h W-SW 248 5 min 280 W/m 4,8 km/h
27.01.2022 13:35 5,2 C 0,9 C 0,0 C -0,3 C 8,9 C 46 % 33 cb 1027,9 hPa 0,0 l/m 2,4 km/h SW 225 5 min 297 W/m 6,4 km/h
27.01.2022 13:30 4,8 C 0,9 C 0,0 C -0,3 C 10,5 C 43 % 33 cb 1028,1 hPa 0,0 l/m 0,9 km/h N 360 5 min 326 W/m 3,2 km/h
27.01.2022 13:25 4,6 C 0,9 C 0,0 C -0,3 C 12,8 C 45 % 33 cb 1028,3 hPa 0,0 l/m 0,7 km/h N 360 5 min 349 W/m 3,2 km/h
27.01.2022 13:20 4,4 C 0,9 C 0,0 C -0,3 C 13,4 C 45 % 33 cb 1028,4 hPa 0,0 l/m 1,0 km/h N 360 5 min 350 W/m 3,2 km/h
27.01.2022 13:15 4,3 C 0,9 C 0,0 C -0,3 C 11,8 C 46 % 33 cb 1028,5 hPa 0,0 l/m 3,3 km/h N 360 5 min 326 W/m 4,8 km/h
27.01.2022 13:10 4,3 C 0,9 C 0,0 C -0,3 C 11,7 C 44 % 33 cb 1028,5 hPa 0,0 l/m 1,5 km/h N-NO 22 5 min 316 W/m 4,8 km/h
27.01.2022 13:05 4,2 C 0,9 C 0,0 C -0,3 C 10,0 C 45 % 33 cb 1028,7 hPa 0,0 l/m 1,6 km/h O-NO 68 5 min 294 W/m 6,4 km/h
27.01.2022 13:00 4,2 C 0,9 C 0,0 C -0,3 C 9,6 C 47 % 33 cb 1028,8 hPa 0,0 l/m 2,6 km/h O-NO 68 5 min 281 W/m 4,8 km/h
27.01.2022 12:55 4,2 C 0,9 C 0,0 C -0,3 C 7,8 C 47 % 33 cb 1028,9 hPa 0,0 l/m 3,6 km/h O-NO 68 5 min 280 W/m 6,4 km/h
27.01.2022 12:50 4,2 C 0,9 C 0,0 C -0,3 C 3,2 C 47 % 33 cb 1029,0 hPa 0,0 l/m 0,1 km/h O-NO 68 5 min 275 W/m 1,6 km/h
27.01.2022 12:45 3,8 C 0,9 C 0,0 C -0,3 C 2,7 C 48 % 33 cb 1029,3 hPa 0,0 l/m 1,8 km/h N-NO 22 5 min 281 W/m 4,8 km/h
27.01.2022 12:40 3,7 C 0,9 C 0,0 C -0,3 C 2,8 C 48 % 33 cb 1029,3 hPa 0,0 l/m 2,7 km/h N-NO 22 5 min 249 W/m 4,8 km/h
27.01.2022 12:35 3,9 C 0,9 C 0,0 C -0,3 C 2,8 C 49 % 33 cb 1029,4 hPa 0,0 l/m 3,5 km/h O-NO 68 5 min 291 W/m 4,8 km/h
27.01.2022 12:30 3,8 C 0,9 C 0,0 C -0,3 C 2,9 C 49 % 33 cb 1029,6 hPa 0,0 l/m 2,3 km/h O-NO 68 5 min 321 W/m 4,8 km/h
27.01.2022 12:25 3,6 C 0,9 C 0,0 C -0,3 C 2,7 C 51 % 33 cb 1029,7 hPa 0,0 l/m 2,3 km/h O-NO 68 5 min 330 W/m 4,8 km/h
27.01.2022 12:20 3,4 C 0,9 C 0,0 C -0,3 C 2,6 C 53 % 33 cb 1030,0 hPa 0,0 l/m 2,6 km/h O-NO 68 5 min 352 W/m 4,8 km/h
27.01.2022 12:15 3,3 C 0,9 C 0,0 C -0,3 C 2,1 C 53 % 33 cb 1030,1 hPa 0,0 l/m 1,7 km/h O-NO 68 5 min 372 W/m 4,8 km/h
27.01.2022 12:10 3,2 C 0,9 C 0,0 C -0,3 C 2,1 C 54 % 33 cb 1030,2 hPa 0,0 l/m 2,6 km/h O-NO 68 5 min 334 W/m 4,8 km/h
27.01.2022 12:05 3,1 C 0,9 C 0,0 C -0,3 C 2,1 C 54 % 33 cb 1030,2 hPa 0,0 l/m 2,1 km/h O-NO 68 5 min 321 W/m 4,8 km/h
27.01.2022 12:00 2,9 C 0,9 C 0,0 C -0,3 C 1,4 C 53 % 33 cb 1030,4 hPa 0,0 l/m 0,7 km/h NO 45 5 min 308 W/m 1,6 km/h
27.01.2022 11:55 2,7 C 0,9 C 0,0 C -0,3 C 1,2 C 54 % 33 cb 1030,6 hPa 0,0 l/m 0,4 km/h NO 45 5 min 327 W/m 3,2 km/h
27.01.2022 11:50 2,5 C 0,9 C 0,0 C -0,3 C 1,3 C 54 % 33 cb 1030,7 hPa 0,0 l/m 0,1 km/h NO 45 5 min 320 W/m 1,6 km/h
27.01.2022 11:45 2,4 C 0,9 C 0,0 C -0,3 C 1,3 C 55 % 33 cb 1030,8 hPa 0,0 l/m 0,3 km/h NO 45 5 min 313 W/m 3,2 km/h
27.01.2022 11:40 2,4 C 0,9 C 0,0 C -0,3 C 1,3 C 53 % 33 cb 1030,9 hPa 0,0 l/m 1,5 km/h NO 45 5 min 289 W/m 3,2 km/h
27.01.2022 11:35 2,4 C 0,9 C 0,0 C -0,3 C 1,4 C 55 % 33 cb 1030,9 hPa 0,0 l/m 1,4 km/h NO 45 5 min 262 W/m 3,2 km/h
27.01.2022 11:30 2,3 C 0,9 C 0,0 C -0,3 C 1,1 C 55 % 33 cb 1031,0 hPa 0,0 l/m 1,8 km/h N 360 5 min 271 W/m 4,8 km/h
27.01.2022 11:25 2,2 C 0,9 C 0,0 C -0,3 C 1,0 C 55 % 33 cb 1031,1 hPa 0,0 l/m 1,5 km/h O-NO 68 5 min 274 W/m 4,8 km/h
27.01.2022 11:20 2,1 C 0,9 C 0,0 C -0,3 C 1,2 C 56 % 33 cb 1031,2 hPa 0,0 l/m 1,6 km/h N 360 5 min 307 W/m 4,8 km/h
27.01.2022 11:15 1,9 C 0,9 C 0,0 C -0,3 C 1,0 C 56 % 33 cb 1031,3 hPa 0,0 l/m 0,7 km/h N 360 5 min 303 W/m 3,2 km/h
27.01.2022 11:10 1,9 C 0,9 C 0,0 C -0,3 C 1,1 C 56 % 33 cb 1031,5 hPa 0,0 l/m 2,5 km/h N-NO 22 5 min 296 W/m 4,8 km/h
27.01.2022 11:05 1,9 C 0,9 C 0,0 C -0,3 C 0,7 C 57 % 33 cb 1031,3 hPa 0,0 l/m 1,1 km/h O 90 5 min 300 W/m 3,2 km/h
27.01.2022 11:00 1,7 C 0,9 C 0,0 C -0,3 C 0,7 C 56 % 33 cb 1031,5 hPa 0,0 l/m 2,0 km/h O 90 5 min 314 W/m 3,2 km/h
27.01.2022 10:55 1,6 C 0,9 C 0,0 C -0,3 C 0,4 C 55 % 33 cb 1031,7 hPa 0,0 l/m 1,4 km/h O 90 5 min 303 W/m 3,2 km/h
27.01.2022 10:50 1,4 C 0,9 C 0,0 C -0,3 C -0,6 C 57 % 33 cb 1031,6 hPa 0,0 l/m 0,6 km/h O 90 5 min 316 W/m 3,2 km/h
27.01.2022 10:45 1,4 C 0,9 C 0,0 C -0,3 C -0,4 C 57 % 33 cb 1031,8 hPa 0,0 l/m 0,9 km/h O-NO 68 5 min 304 W/m 3,2 km/h
27.01.2022 10:40 1,3 C 0,9 C 0,0 C -0,3 C -0,3 C 57 % 33 cb 1031,9 hPa 0,0 l/m 0,4 km/h N 360 5 min 296 W/m 1,6 km/h
27.01.2022 10:35 1,2 C 0,9 C 0,0 C -0,3 C -0,3 C 58 % 33 cb 1031,9 hPa 0,0 l/m 0,9 km/h N 360 5 min 285 W/m 3,2 km/h
27.01.2022 10:30 1,2 C 0,9 C 0,0 C -0,3 C -0,1 C 59 % 33 cb 1031,9 hPa 0,0 l/m 1,7 km/h N 360 5 min 272 W/m 3,2 km/h
27.01.2022 10:25 1,1 C 0,9 C 0,0 C -0,3 C -0,3 C 59 % 33 cb 1031,9 hPa 0,0 l/m 1,2 km/h N-NO 22 5 min 253 W/m 3,2 km/h
27.01.2022 10:20 1,1 C 0,9 C 0,0 C -0,3 C -0,1 C 59 % 33 cb 1031,9 hPa 0,0 l/m 2,1 km/h N-NW 338 5 min 257 W/m 4,8 km/h
27.01.2022 10:15 0,9 C 0,9 C 0,0 C -0,3 C -0,3 C 61 % 33 cb 1031,9 hPa 0,0 l/m 1,9 km/h N 360 5 min 254 W/m 3,2 km/h
27.01.2022 10:10 0,9 C 0,9 C 0,0 C -0,3 C -0,4 C 61 % 33 cb 1031,9 hPa 0,0 l/m 1,4 km/h N 360 5 min 240 W/m 3,2 km/h
27.01.2022 10:05 1,2 C 0,9 C 0,0 C -0,3 C -0,6 C 58 % 33 cb 1031,8 hPa 0,0 l/m 1,1 km/h W 270 5 min 233 W/m 3,2 km/h
27.01.2022 10:00 1,2 C 0,9 C 0,0 C -0,3 C -1,0 C 58 % 33 cb 1031,8 hPa 0,0 l/m 0,9 km/h W 270 5 min 224 W/m 3,2 km/h
27.01.2022 09:55 1,1 C 0,9 C 0,0 C -0,3 C -0,9 C 59 % 33 cb 1032,0 hPa 0,0 l/m 0,6 km/h W 270 5 min 221 W/m 3,2 km/h
27.01.2022 09:50 1,0 C 0,9 C 0,0 C -0,3 C -0,3 C 61 % 33 cb 1032,0 hPa 0,0 l/m 2,6 km/h W 270 5 min 224 W/m 4,8 km/h
27.01.2022 09:45 0,8 C 0,9 C 0,0 C -0,3 C -0,7 C 62 % 33 cb 1032,1 hPa 0,0 l/m 4,0 km/h W 270 5 min 200 W/m 6,4 km/h
27.01.2022 09:40 0,5 C 0,9 C 0,0 C -0,3 C -0,7 C 63 % 33 cb 1032,1 hPa 0,0 l/m 3,6 km/h W 270 5 min 182 W/m 4,8 km/h
27.01.2022 09:35 0,1 C 0,9 C 0,0 C -0,3 C -1,2 C 66 % 33 cb 1032,4 hPa 0,0 l/m 6,3 km/h W 270 5 min 181 W/m 11,2 km/h
27.01.2022 09:30 -0,7 C 0,9 C 0,0 C -0,3 C -2,7 C 70 % 33 cb 1032,7 hPa 0,0 l/m 3,6 km/h W-SW 248 5 min 173 W/m 4,8 km/h
27.01.2022 09:25 -1,2 C 0,9 C 0,1 C -0,3 C -2,9 C 69 % 33 cb 1033,0 hPa 0,0 l/m 1,6 km/h W-SW 248 5 min 156 W/m 3,2 km/h
27.01.2022 09:20 -1,4 C 0,9 C 0,0 C -0,3 C -2,8 C 70 % 33 cb 1033,1 hPa 0,0 l/m 2,8 km/h W-NW 292 5 min 134 W/m 4,8 km/h
27.01.2022 09:15 -1,8 C 0,9 C 0,0 C -0,3 C -4,1 C 70 % 33 cb 1033,3 hPa 0,0 l/m 1,2 km/h W-SW 248 0 min 106 W/m 3,2 km/h
27.01.2022 09:10 -2,0 C 0,9 C 0,1 C -0,3 C -4,2 C 70 % 33 cb 1033,4 hPa 0,0 l/m 0,4 km/h W-SW 248 0 min 84 W/m 1,6 km/h
27.01.2022 09:05 -1,9 C 0,9 C 0,1 C -0,3 C -4,4 C 70 % 33 cb 1033,4 hPa 0,0 l/m 0,2 km/h W-SW 248 0 min 71 W/m 3,2 km/h
27.01.2022 09:00 -2,1 C 0,9 C 0,1 C -0,3 C -4,5 C 70 % 33 cb 1033,5 hPa 0,0 l/m 1,1 km/h SW 225 0 min 59 W/m 4,8 km/h
27.01.2022 08:55 -2,2 C 0,9 C 0,0 C -0,3 C -4,4 C 70 % 33 cb 1033,6 hPa 0,0 l/m 3,5 km/h W-SW 248 0 min 47 W/m 4,8 km/h
27.01.2022 08:50 -2,2 C 0,9 C 0,1 C -0,3 C -3,9 C 70 % 33 cb 1033,6 hPa 0,0 l/m 5,1 km/h W 270 0 min 45 W/m 6,4 km/h
27.01.2022 08:45 -2,2 C 0,9 C 0,1 C -0,3 C -4,5 C 71 % 33 cb 1033,5 hPa 0,0 l/m 2,3 km/h S-SW 202 0 min 39 W/m 4,8 km/h
27.01.2022 08:40 -2,8 C 0,9 C 0,1 C -0,3 C -5,3 C 73 % 33 cb 1033,7 hPa 0,0 l/m 2,6 km/h S-SW 202 0 min 34 W/m 4,8 km/h
27.01.2022 08:35 -3,1 C 0,9 C 0,1 C -0,3 C -5,4 C 74 % 33 cb 1034,0 hPa 0,0 l/m 3,7 km/h S-SW 202 0 min 31 W/m 6,4 km/h
27.01.2022 08:30 -3,1 C 0,9 C 0,1 C -0,3 C -5,5 C 74 % 33 cb 1034,0 hPa 0,0 l/m 1,4 km/h SW 225 0 min 28 W/m 4,8 km/h
27.01.2022 08:25 -3,1 C 0,9 C 0,1 C -0,3 C -5,5 C 74 % 33 cb 1034,1 hPa 0,0 l/m 1,2 km/h SW 225 0 min 26 W/m 3,2 km/h
27.01.2022 08:20 -2,9 C 0,9 C 0,1 C -0,3 C -5,5 C 74 % 33 cb 1033,9 hPa 0,0 l/m 0,6 km/h SW 225 0 min 25 W/m 3,2 km/h
27.01.2022 08:15 -3,2 C 0,9 C 0,1 C -0,3 C -6,0 C 74 % 33 cb 1034,1 hPa 0,0 l/m 0,1 km/h SW 225 0 min 20 W/m 1,6 km/h
27.01.2022 08:10 -3,4 C 0,9 C 0,1 C -0,3 C -5,5 C 75 % 33 cb 1034,0 hPa 0,0 l/m 1,0 km/h SW 225 0 min 15 W/m 3,2 km/h
27.01.2022 08:05 -3,7 C 0,9 C 0,1 C -0,3 C -5,8 C 76 % 33 cb 1034,2 hPa 0,0 l/m 2,7 km/h SW 225 0 min 11 W/m 4,8 km/h
27.01.2022 08:00 -3,8 C 0,9 C 0,1 C -0,3 C -6,1 C 76 % 33 cb 1034,4 hPa 0,0 l/m 2,5 km/h W-SW 248 0 min 7 W/m 3,2 km/h
27.01.2022 07:55 -3,7 C 0,9 C 0,1 C -0,3 C -6,1 C 75 % 33 cb 1034,5 hPa 0,0 l/m 0,8 km/h NW 315 0 min 3 W/m 1,6 km/h
27.01.2022 07:50 -3,4 C 0,9 C 0,1 C -0,3 C -6,3 C 75 % 33 cb 1034,5 hPa 0,0 l/m 0,9 km/h NW 315 0 min 0 W/m 3,2 km/h
27.01.2022 07:45 -3,2 C 0,9 C 0,1 C -0,3 C -6,3 C 75 % 33 cb 1034,4 hPa 0,0 l/m 0,8 km/h S 180 0 min 0 W/m 3,2 km/h
27.01.2022 07:40 -3,2 C 0,9 C 0,1 C -0,3 C -6,2 C 74 % 33 cb 1034,5 hPa 0,0 l/m 0,6 km/h S 180 0 min 0 W/m 3,2 km/h
27.01.2022 07:35 -3,1 C 0,9 C 0,1 C -0,3 C -5,7 C 74 % 33 cb 1034,4 hPa 0,0 l/m 1,2 km/h S-SW 202 0 min 0 W/m 3,2 km/h
27.01.2022 07:30 -3,1 C 0,9 C 0,1 C -0,3 C -5,1 C 74 % 33 cb 1034,4 hPa 0,0 l/m 0,6 km/h W-SW 248 0 min 0 W/m 3,2 km/h
27.01.2022 07:25 -3,2 C 0,9 C 0,1 C -0,3 C -5,4 C 76 % 33 cb 1034,4 hPa 0,0 l/m 3,4 km/h W-SW 248 0 min 0 W/m 4,8 km/h
27.01.2022 07:20 -3,6 C 0,9 C 0,1 C -0,3 C -5,9 C 76 % 33 cb 1034,4 hPa 0,0 l/m 3,6 km/h S-SW 202 0 min 0 W/m 4,8 km/h
27.01.2022 07:15 -3,7 C 0,9 C 0,1 C -0,3 C -6,4 C 76 % 33 cb 1034,6 hPa 0,0 l/m 1,8 km/h S 180 0 min 0 W/m 3,2 km/h
27.01.2022 07:10 -3,7 C 0,9 C 0,1 C -0,3 C -6,6 C 76 % 33 cb 1034,5 hPa 0,0 l/m 0,2 km/h S 180 0 min 0 W/m 1,6 km/h
27.01.2022 07:05 -3,8 C 0,9 C 0,1 C -0,3 C -6,7 C 76 % 33 cb 1034,6 hPa 0,0 l/m 1,4 km/h S 180 0 min 0 W/m 3,2 km/h
27.01.2022 07:00 -3,7 C 0,9 C 0,1 C -0,3 C -6,6 C 76 % 33 cb 1034,5 hPa 0,0 l/m 2,4 km/h S-SW 202 0 min 0 W/m 3,2 km/h
27.01.2022 06:55 -3,6 C 0,9 C 0,1 C -0,3 C -6,4 C 75 % 33 cb 1034,5 hPa 0,0 l/m 0,8 km/h S-SW 202 0 min 0 W/m 3,2 km/h
27.01.2022 06:50 -3,6 C 0,9 C 0,1 C -0,3 C -6,4 C 76 % 33 cb 1034,4 hPa 0,0 l/m 1,8 km/h S-SW 202 0 min 0 W/m 4,8 km/h
27.01.2022 06:45 -3,6 C 0,9 C 0,1 C -0,3 C -6,3 C 76 % 33 cb 1034,3 hPa 0,0 l/m 2,2 km/h W 270 0 min 0 W/m 3,2 km/h
27.01.2022 06:40 -3,7 C 0,9 C 0,1 C -0,3 C -6,3 C 76 % 33 cb 1034,4 hPa 0,0 l/m 1,7 km/h W 270 0 min 0 W/m 3,2 km/h
27.01.2022 06:35 -3,6 C 0,9 C 0,1 C -0,3 C -6,9 C 75 % 33 cb 1034,2 hPa 0,0 l/m 0,4 km/h SW 225 0 min 0 W/m 3,2 km/h
27.01.2022 06:30 -3,7 C 0,9 C 0,1 C -0,3 C -6,7 C 76 % 33 cb 1034,3 hPa 0,0 l/m 0,0 km/h S-SW 202 0 min 0 W/m 1,6 km/h
27.01.2022 06:25 -3,7 C 0,9 C 0,1 C -0,3 C -6,5 C 76 % 33 cb 1034,2 hPa 0,0 l/m 1,9 km/h S-SW 202 0 min 0 W/m 4,8 km/h
27.01.2022 06:20 -3,8 C 0,9 C 0,1 C -0,3 C -6,4 C 76 % 33 cb 1034,4 hPa 0,0 l/m 2,3 km/h S-SW 202 0 min 0 W/m 4,8 km/h
27.01.2022 06:15 -3,8 C 0,9 C 0,1 C -0,3 C -6,8 C 76 % 33 cb 1034,4 hPa 0,0 l/m 0,1 km/h SO 135 0 min 0 W/m 1,6 km/h
27.01.2022 06:10 -3,9 C 0,9 C 0,1 C -0,3 C -6,5 C 76 % 33 cb 1034,4 hPa 0,0 l/m 0,9 km/h SO 135 0 min 0 W/m 3,2 km/h
27.01.2022 06:05 -4,0 C 0,9 C 0,1 C -0,3 C -6,5 C 77 % 33 cb 1034,4 hPa 0,0 l/m 1,1 km/h SO 135 0 min 0 W/m 3,2 km/h
27.01.2022 06:00 -4,1 C 0,9 C 0,1 C -0,3 C -6,8 C 78 % 33 cb 1034,4 hPa 0,0 l/m 0,5 km/h SO 135 0 min 0 W/m 3,2 km/h
27.01.2022 05:55 -4,1 C 0,9 C 0,1 C -0,3 C -6,7 C 76 % 33 cb 1034,4 hPa 0,0 l/m 1,0 km/h SO 135 0 min 0 W/m 4,8 km/h
27.01.2022 05:50 -3,9 C 0,9 C 0,1 C -0,3 C -7,1 C 76 % 33 cb 1034,5 hPa 0,0 l/m 0,2 km/h SO 135 0 min 0 W/m 1,6 km/h
27.01.2022 05:45 -3,6 C 0,9 C 0,1 C -0,3 C -6,6 C 76 % 33 cb 1034,4 hPa 0,0 l/m 0,0 km/h SO 135 0 min 0 W/m 1,6 km/h
27.01.2022 05:40 -3,4 C 0,9 C 0,1 C -0,3 C -6,4 C 75 % 33 cb 1034,4 hPa 0,0 l/m 0,2 km/h SO 135 0 min 0 W/m 1,6 km/h
27.01.2022 05:35 -3,3 C 0,9 C 0,1 C -0,3 C -6,5 C 75 % 33 cb 1034,3 hPa 0,0 l/m 0,4 km/h O 90 0 min 0 W/m 3,2 km/h
27.01.2022 05:30 -2,9 C 0,9 C 0,1 C -0,3 C -6,4 C 74 % 33 cb 1034,1 hPa 0,0 l/m 2,1 km/h O 90 0 min 0 W/m 4,8 km/h
27.01.2022 05:25 -2,8 C 0,9 C 0,1 C -0,3 C -6,1 C 74 % 33 cb 1033,9 hPa 0,0 l/m 1,3 km/h S 180 0 min 0 W/m 3,2 km/h
27.01.2022 05:20 -2,9 C 0,9 C 0,1 C -0,3 C -5,8 C 74 % 33 cb 1034,0 hPa 0,0 l/m 0,9 km/h S-SW 202 0 min 0 W/m 3,2 km/h
27.01.2022 05:15 -3,1 C 0,9 C 0,1 C -0,3 C -5,7 C 75 % 33 cb 1034,0 hPa 0,0 l/m 1,3 km/h S-SW 202 0 min 0 W/m 3,2 km/h
27.01.2022 05:10 -3,1 C 0,9 C 0,1 C -0,3 C -5,8 C 74 % 33 cb 1034,1 hPa 0,0 l/m 2,1 km/h S-SW 202 0 min 0 W/m 4,8 km/h
27.01.2022 05:05 -2,8 C 0,9 C 0,1 C -0,3 C -5,9 C 74 % 33 cb 1033,8 hPa 0,0 l/m 0,0 km/h W-NW 292 0 min 0 W/m 1,6 km/h
27.01.2022 05:00 -2,8 C 0,9 C 0,1 C -0,3 C -6,1 C 73 % 33 cb 1034,0 hPa 0,0 l/m 0,1 km/h W-NW 292 0 min 0 W/m 1,6 km/h
27.01.2022 04:55 -2,4 C 0,9 C 0,1 C -0,3 C -5,7 C 72 % 33 cb 1033,9 hPa 0,0 l/m 0,6 km/h W-NW 292 0 min 0 W/m 3,2 km/h
27.01.2022 04:50 -2,2 C 0,9 C 0,1 C -0,3 C -5,5 C 73 % 33 cb 1033,8 hPa 0,0 l/m 0,8 km/h W 270 0 min 0 W/m 4,8 km/h
27.01.2022 04:45 -2,2 C 0,9 C 0,1 C -0,3 C -4,8 C 73 % 33 cb 1033,8 hPa 0,0 l/m 3,8 km/h W 270 0 min 0 W/m 6,4 km/h
27.01.2022 04:40 -2,3 C 0,9 C 0,1 C -0,3 C -4,8 C 74 % 33 cb 1033,9 hPa 0,0 l/m 5,0 km/h W 270 0 min 0 W/m 6,4 km/h
27.01.2022 04:35 -2,7 C 0,9 C 0,1 C -0,3 C -5,1 C 74 % 33 cb 1034,0 hPa 0,0 l/m 4,4 km/h W-SW 248 0 min 0 W/m 6,4 km/h
27.01.2022 04:30 -2,8 C 0,9 C 0,1 C -0,3 C -5,4 C 75 % 33 cb 1033,9 hPa 0,0 l/m 3,6 km/h W-SW 248 0 min 0 W/m 6,4 km/h
27.01.2022 04:25 -2,8 C 0,9 C 0,1 C -0,3 C -4,9 C 75 % 33 cb 1034,0 hPa 0,0 l/m 1,8 km/h S-SW 202 0 min 0 W/m 4,8 km/h
27.01.2022 04:20 -2,8 C 0,9 C 0,1 C -0,3 C -6,3 C 76 % 33 cb 1034,0 hPa 0,0 l/m 1,6 km/h S-SW 202 0 min 0 W/m 4,8 km/h
27.01.2022 04:15 -3,2 C 0,9 C 0,1 C -0,3 C -5,3 C 77 % 33 cb 1034,2 hPa 0,0 l/m 4,9 km/h S-SW 202 0 min 0 W/m 8,0 km/h
27.01.2022 04:10 -3,2 C 0,9 C 0,1 C -0,3 C -6,0 C 77 % 33 cb 1034,2 hPa 0,0 l/m 2,0 km/h S 180 0 min 0 W/m 4,8 km/h
27.01.2022 04:05 -3,2 C 0,9 C 0,1 C -0,3 C -6,2 C 76 % 33 cb 1034,1 hPa 0,0 l/m 1,1 km/h S 180 0 min 0 W/m 3,2 km/h
27.01.2022 04:00 -3,0 C 0,9 C 0,1 C -0,3 C -5,9 C 75 % 33 cb 1034,0 hPa 0,0 l/m 0,7 km/h S-SW 202 0 min 0 W/m 3,2 km/h
27.01.2022 03:55 -2,8 C 0,9 C 0,1 C -0,3 C -6,1 C 75 % 33 cb 1033,7 hPa 0,0 l/m 0,1 km/h SW 225 0 min 0 W/m 1,6 km/h
27.01.2022 03:50 -2,7 C 0,9 C 0,1 C -0,3 C -6,0 C 75 % 33 cb 1033,4 hPa 0,0 l/m 1,1 km/h SW 225 0 min 0 W/m 3,2 km/h
27.01.2022 03:45 -2,7 C 0,9 C 0,1 C -0,3 C -6,2 C 75 % 33 cb 1033,5 hPa 0,0 l/m 0,3 km/h SW 225 0 min 0 W/m 1,6 km/h
27.01.2022 03:40 -2,8 C 0,9 C 0,1 C -0,3 C -6,3 C 75 % 33 cb 1033,5 hPa 0,0 l/m 0,0 km/h SW 225 0 min 0 W/m 1,6 km/h
27.01.2022 03:35 -2,7 C 0,9 C 0,1 C -0,3 C -6,2 C 76 % 33 cb 1033,5 hPa 0,0 l/m 0,4 km/h SW 225 0 min 0 W/m 1,6 km/h
27.01.2022 03:30 -2,8 C 0,9 C 0,1 C -0,3 C -5,7 C 76 % 33 cb 1033,6 hPa 0,0 l/m 0,4 km/h SW 225 0 min 0 W/m 1,6 km/h
27.01.2022 03:25 -2,8 C 0,9 C 0,1 C -0,3 C -5,3 C 76 % 33 cb 1033,6 hPa 0,0 l/m 0,0 km/h SW 225 0 min 0 W/m 1,6 km/h
27.01.2022 03:20 -2,8 C 0,9 C 0,1 C -0,3 C -5,7 C 77 % 33 cb 1033,7 hPa 0,0 l/m 0,1 km/h SW 225 0 min 0 W/m 1,6 km/h
27.01.2022 03:15 -3,1 C 0,9 C 0,1 C -0,3 C -5,2 C 76 % 33 cb 1033,9 hPa 0,0 l/m 2,0 km/h S 180 0 min 0 W/m 4,8 km/h
27.01.2022 03:10 -3,1 C 0,9 C 0,1 C -0,3 C -5,9 C 77 % 33 cb 1033,8 hPa 0,0 l/m 1,1 km/h S 180 0 min 0 W/m 4,8 km/h
27.01.2022 03:05 -3,1 C 0,9 C 0,1 C -0,3 C -5,4 C 76 % 33 cb 1034,0 hPa 0,0 l/m 2,5 km/h S 180 0 min 0 W/m 4,8 km/h
27.01.2022 03:00 -2,8 C 0,9 C 0,1 C -0,3 C -6,0 C 76 % 33 cb 1033,8 hPa 0,0 l/m 0,0 km/h N 360 0 min 0 W/m 0,0 km/h
27.01.2022 02:55 -2,8 C 0,9 C 0,1 C -0,3 C -5,6 C 76 % 33 cb 1033,9 hPa 0,0 l/m 0,0 km/h N 360 0 min 0 W/m 0,0 km/h
27.01.2022 02:50 -2,9 C 0,9 C 0,1 C -0,3 C -5,7 C 76 % 33 cb 1033,9 hPa 0,0 l/m 0,0 km/h N 360 0 min 0 W/m 0,0 km/h
27.01.2022 02:45 -2,8 C 0,9 C 0,1 C -0,3 C -5,5 C 76 % 33 cb 1033,8 hPa 0,0 l/m 0,3 km/h S-SW 202 0 min 0 W/m 3,2 km/h
27.01.2022 02:40 -2,5 C 0,9 C 0,1 C -0,3 C -5,2 C 75 % 33 cb 1033,7 hPa 0,0 l/m 0,7 km/h S-SW 202 0 min 0 W/m 3,2 km/h
27.01.2022 02:35 -2,4 C 0,9 C 0,1 C -0,3 C -5,2 C 76 % 33 cb 1033,6 hPa 0,0 l/m 1,2 km/h S-SW 202 0 min 0 W/m 4,8 km/h
27.01.2022 02:30 -2,6 C 0,9 C 0,1 C -0,3 C -4,9 C 77 % 33 cb 1033,6 hPa 0,0 l/m 2,1 km/h S-SW 202 0 min 0 W/m 3,2 km/h
27.01.2022 02:25 -2,7 C 0,9 C 0,1 C -0,3 C -5,4 C 77 % 33 cb 1033,8 hPa 0,0 l/m 2,2 km/h S-SW 202 0 min 0 W/m 4,8 km/h
27.01.2022 02:20 -2,6 C 0,9 C 0,1 C -0,3 C -5,7 C 77 % 33 cb 1033,8 hPa 0,0 l/m 0,0 km/h N 360 0 min 0 W/m 0,0 km/h
27.01.2022 02:15 -2,2 C 0,9 C 0,1 C -0,3 C -5,8 C 76 % 33 cb 1033,6 hPa 0,0 l/m 0,0 km/h N 360 0 min 0 W/m 0,0 km/h
27.01.2022 02:10 -2,0 C 0,9 C 0,1 C -0,3 C -5,1 C 75 % 33 cb 1033,5 hPa 0,0 l/m 0,3 km/h SO 135 0 min 0 W/m 1,6 km/h
27.01.2022 02:05 -1,7 C 0,9 C 0,1 C -0,3 C -4,7 C 76 % 33 cb 1033,4 hPa 0,0 l/m 0,2 km/h S 180 0 min 0 W/m 1,6 km/h
27.01.2022 02:00 -1,8 C 0,9 C 0,1 C -0,3 C -4,3 C 76 % 33 cb 1033,6 hPa 0,0 l/m 2,5 km/h S 180 0 min 0 W/m 4,8 km/h
_ Min-Zeit 05:55 02:00 08:55 02:00 05:50 14:20 02:00 15:25 - 02:15 - - - - 02:15
Minimum _ -4,1 C 0,9 C 0,0 C -0,3 C -7,1 C 38 % 33 cb 1025,9 hPa - 0,0 km/h - - - - 0,0 km/h
_ Max-Zeit 15:25 02:00 02:00 02:00 13:20 06:00 19:00 07:05 02:00 00:55 - - 09:20 12:15 00:15
Maximum _ 6,5 C 0,9 C 0,1 C -0,3 C 13,4 C 78 % 34 cb 1034,6 hPa 0,0 l/m 21,0 km/h
W
- - 5 min 372 W/m 35,2 km/h
W
Durchschnitt _ 0,5 C 0,9 C 0,0 C -0,3 C -1,4 C 63 % 33 cb 1030,7 hPa #0,0 l/m 2,6 km/h S-SW - #0 min. 0 W/m 5,5 km/h